KE9LZ-9 Weather Reports


time (UTC)temp
C
wind
direction
speed
KPH
gust
KPH
rain 1hr
cm
rain 24hr
cm
rain mn
cm
humidity
%
barometer
mb
20260507154005 7 266 8.0 14.5 0.00 0.00 0.00 55 1012.2
20260507153004 6 261 4.8 19.3 0.00 0.00 0.00 56 1012.3
20260507152004 6 281 9.7 24.1 0.00 0.00 0.00 55 1012.2
20260507151004 6 291 4.8 16.1 0.00 0.00 0.00 55 1012.2
20260507150003 6 279 4.8 11.3 0.00 0.00 0.00 55 1012.2
20260507145004 6 213 3.2 12.9 0.00 0.00 0.00 56 1012.3
20260507143004 6 265 8.0 14.5 0.00 0.00 0.00 56 1012.5
20260507142004 5 285 4.8 16.1 0.00 0.00 0.00 56 1012.5
20260507141004 5 266 8.0 16.1 0.00 0.00 0.00 57 1012.5
20260507140003 5 270 4.8 14.5 0.00 0.00 0.00 58 1012.7
20260507135004 5 244 4.8 11.3 0.00 0.00 0.00 59 1012.5
20260507134004 5 257 4.8 9.7 0.00 0.00 0.00 61 1012.6
20260507133003 4 254 1.6 8.0 0.00 0.00 0.00 62 1012.5
20260507132004 4 282 3.2 8.0 0.00 0.00 0.00 64 1012.5
20260507131004 4 316 4.8 9.7 0.00 0.00 0.00 64 1012.4
20260507130004 3 265 1.6 4.8 0.00 0.00 0.00 65 1012.5
20260507125004 3 330 0.0 8.0 0.00 0.00 0.00 67 1012.6
20260507124004 3 300 3.2 8.0 0.00 0.00 0.00 67 1012.5
20260507123003 3 311 1.6 4.8 0.00 0.00 0.00 67 1012.4
20260507120005 2 319 1.6 9.7 0.00 0.00 0.00 69 1012.3
20260507115004 2 283 1.6 8.0 0.00 0.00 0.00 69 1012.1
20260507114003 2 331 1.6 3.2 0.00 0.00 0.00 70 1012.0
20260507113004 2 299 1.6 3.2 0.00 0.00 0.00 69 1012.0
20260507112004 2 303 0.0 3.2 0.00 0.00 0.00 70 1011.9
20260507111004 2 314 1.6 3.2 0.00 0.00 0.00 71 1011.8
20260507110004 2 281 1.6 3.2 0.00 0.00 0.00 70 1011.9
20260507105003 2 282 1.6 3.2 0.00 0.00 0.00 70 1012.0
20260507103004 2 296 1.6 4.8 0.00 0.00 0.00 70 1011.9
20260507102006 1 279 1.6 3.2 0.00 0.00 0.00 71 1011.7
20260507101004 1 299 1.6 3.2 0.00 0.00 0.00 72 1011.9
20260507100005 1 328 0.0 3.2 0.00 0.00 0.00 73 1011.8
20260507095004 1 345 0.0 3.2 0.00 0.00 0.00 74 1012.0
20260507094004 1 3 0.0 1.6 0.00 0.00 0.00 72 1011.9
20260507093004 1 355 0.0 1.6 0.00 0.00 0.00 73 1011.8
20260507092004 1 316 0.0 1.6 0.00 0.00 0.00 75 1011.9
20260507091003 1 8 0.0 1.6 0.00 0.00 0.00 73 1011.9
20260507090005 1 11 0.0 1.6 0.00 0.00 0.00 72 1011.9
20260507085004 1 321 0.0 1.6 0.00 0.00 0.00 74 1012.1
20260507084003 1 13 0.0 1.6 0.00 0.00 0.00 72 1012.2
20260507083004 1 322 0.0 1.6 0.00 0.00 0.00 72 1012.0
20260507082003 1 335 0.0 1.6 0.00 0.00 0.00 72 1012.2
20260507081003 1 330 0.0 1.6 0.00 0.00 0.00 71 1012.0
20260507075004 1 342 0.0 1.6 0.00 0.00 0.00 68 1012.1
20260507074003 1 332 0.0 1.6 0.00 0.00 0.00 69 1012.3
20260507073004 1 352 0.0 1.6 0.00 0.00 0.00 68 1012.3
20260507072004 1 32 0.0 1.6 0.00 0.00 0.00 69 1012.4
20260507071004 1 52 1.6 1.6 0.00 0.00 0.00 67 1012.5
20260507070009 1 354 0.0 1.6 0.00 0.00 0.00 67 1012.6
20260507065004 2 30 0.0 1.6 0.00 0.00 0.00 69 1012.8
20260507064003 2 24 0.0 1.6 0.00 0.00 0.00 68 1012.8
20260507063003 2 19 0.0 1.6 0.00 0.00 0.00 67 1013.1
20260507060004 2 327 0.0 1.6 0.00 0.00 0.00 64 1013.2
20260507055004 2 1 0.0 1.6 0.00 0.00 0.00 62 1013.3
20260507054003 2 343 0.0 1.6 0.00 0.00 0.00 65 1013.4
20260507053004 2 10 0.0 1.6 0.00 0.00 0.00 64 1013.6
20260507051004 2 330 0.0 1.6 0.00 0.00 0.00 64 1013.6
20260507050004 2 32 0.0 0.0 0.00 0.00 0.00 63 1013.5
20260507044004 3 346 0.0 1.6 0.00 0.00 0.00 62 1013.6
20260507043003 3 306 0.0 1.6 0.00 0.00 0.00 61 1013.6
20260507042004 3 5 0.0 1.6 0.00 0.00 0.00 58 1013.6
20260507041004 3 13 1.6 1.6 0.00 0.00 0.00 60 1013.5
20260507040004 3 0 0.0 1.6 0.00 0.00 0.00 58 1013.6
20260507031003 4 298 1.6 4.8 0.00 0.00 0.00 53 1013.6
20260507030004 5 327 3.2 8.0 0.00 0.00 0.00 52 1013.7
20260507025004 5 351 1.6 9.7 0.00 0.00 0.00 52 1013.7
20260507023003 5 264 4.8 12.9 0.00 0.00 0.00 51 1013.6
20260507022004 5 339 6.4 12.9 0.00 0.00 0.00 51 1013.6
20260507020003 5 333 4.8 16.1 0.00 0.00 0.00 51 1013.3
20260507015004 5 291 3.2 9.7 0.00 0.00 0.00 52 1013.5
20260507014004 5 346 3.2 8.0 0.00 0.00 0.00 52 1013.3
20260507013004 5 313 3.2 9.7 0.00 0.00 0.00 52 1013.3
20260507012004 5 348 3.2 4.8 0.00 0.00 0.00 51 1013.2
20260507011004 5 323 3.2 9.7 0.00 0.00 0.00 50 1013.1
20260507010004 5 14 3.2 14.5 0.00 0.00 0.00 50 1013.0
20260507005004 5 348 3.2 8.0 0.00 0.00 0.00 49 1013.1
20260507004003 6 23 3.2 9.7 0.00 0.00 0.00 49 1012.9
20260507003003 6 29 3.2 11.3 0.00 0.00 0.00 48 1012.8
20260507002004 6 341 4.8 11.3 0.00 0.00 0.00 47 1012.8
20260507001004 6 16 3.2 12.9 0.00 0.00 0.00 48 1012.5
20260507000004 6 332 4.8 12.9 0.00 0.00 0.00 46 1012.6
20260506235004 6 313 4.8 9.7 0.00 0.00 0.00 46 1012.5
20260506234004 7 8 4.8 19.3 0.00 0.00 0.00 45 1012.3
20260506232003 7 291 8.0 14.5 0.00 0.00 0.00 44 1012.1
20260506231003 7 337 4.8 14.5 0.00 0.00 0.00 44 1012.3
20260506230004 7 338 6.4 16.1 0.00 0.00 0.00 43 1012.2
20260506225004 7 285 6.4 14.5 0.00 0.00 0.00 43 1012.2
20260506223004 8 313 4.8 12.9 0.00 0.00 0.00 41 1012.1
20260506222004 8 345 4.8 14.5 0.00 0.00 0.00 41 1012.0
20260506221004 8 345 6.4 16.1 0.00 0.00 0.00 40 1012.0
20260506220004 8 33 6.4 16.1 0.00 0.00 0.00 40 1011.9
20260506215004 8 43 3.2 9.7 0.00 0.00 0.00 40 1011.9
20260506214003 7 358 6.4 9.7 0.00 0.00 0.00 40 1011.9
20260506213004 8 36 3.2 9.7 0.00 0.00 0.00 40 1011.9
20260506212004 8 26 1.6 12.9 0.00 0.00 0.00 39 1011.9
20260506210004 8 322 8.0 19.3 0.00 0.00 0.00 39 1011.8
20260506205004 8 19 4.8 14.5 0.00 0.00 0.00 39 1012.0
20260506204004 8 331 3.2 29.0 0.00 0.00 0.00 40 1011.9
20260506203004 8 331 8.0 14.5 0.00 0.00 0.00 40 1012.0
20260506202003 8 349 8.0 14.5 0.00 0.00 0.00 42 1012.0
20260506201004 8 350 4.8 19.3 0.00 0.00 0.00 43 1012.1
20260506195004 7 2 3.2 16.1 0.00 0.00 0.00 44 1012.3
20260506194004 8 351 3.2 19.3 0.00 0.00 0.00 44 1012.3
20260506193004 7 318 4.8 12.9 0.00 0.00 0.00 46 1012.2
20260506191004 7 4 8.0 22.5 0.00 0.00 0.00 47 1012.3
20260506190005 7 128 3.2 11.3 0.00 0.00 0.00 47 1012.3
20260506185004 6 321 6.4 22.5 0.00 0.00 0.00 48 1012.3
20260506184004 7 282 8.0 14.5 0.00 0.00 0.00 46 1012.3
20260506183005 7 30 3.2 12.9 0.00 0.00 0.00 48 1012.4
20260506175004 7 332 6.4 12.9 0.00 0.00 0.00 45 1012.5
20260506174004 6 283 4.8 14.5 0.00 0.00 0.00 46 1012.5
20260506172005 6 297 9.7 20.9 0.00 0.00 0.00 48 1012.7
20260506170004 6 341 4.8 19.3 0.00 0.00 0.00 50 1012.9
20260506164004 6 295 8.0 22.5 0.00 0.00 0.00 49 1013.2
20260506163004 6 264 9.7 24.1 0.00 0.00 0.00 49 1013.1
20260506162004 5 283 9.7 22.5 0.00 0.00 0.00 51 1013.2
20260506161004 5 248 8.0 14.5 0.00 0.00 0.00 52 1013.3
20260506160004 6 330 8.0 14.5 0.00 0.00 0.00 53 1013.1
20260506155004 5 228 1.6 11.3 0.00 0.00 0.00 54 1013.2